LAPAN-A3

Last updated on Mon Sep 07 2026 00:02:45 GMT+0000 (Coordinated Universal Time)

1 41603U 16040E 26249.63510699 .00002072 00000+0 66093-4 0 9995 2 41603 97.1558 243.1589 0012156 84.5383 275.7247 15.33551217567295
UTC large
Height (km)
Speed (km/s)
/
Latitude / Longitude
Inclination (degrees)
Orbital Period (minutes)
Azimuth
Elevation
Range (km)
Doppler Factor

Next 0 passes for location: London (51.5072 / 0.1276)

No passes found over London.
LAPAN-A3